OTC-P1-1

operational
NORAD ID: 63351 Int'l Des: 2025-061 Owner: ORORA Country: D
LEOCIRCULARRETROGRADESSO

About OTC-P1-1

Description loading...

Live Position

Loading 3D Globe...

Upcoming Passes

Altitude History

Altitude vs Time

uPlot chart will show altitude changes over time

Two-Line Element Set

1 63351U 25061A 25312.71685735 .00007307 00000-0 43646-3 0 9990
2 63351 97.5405 285.3758 0018113 309.0704 50.8914 15.11258363 34262
Epoch: Nov 8, 2025 • Age: 36 hours

Current Status

Altitude 542.9 km
Velocity 7.59 km/s
Sub-Earth Point 6.38°N, 15.89°W
Launch Date Mar 26, 2025
Age 0.6 years
Type other

Technical Details

Classification Payload
Mass 15.00 kg
Dry Mass 15.00 kg
Total Mass 15.00 kg
Length 0.30 m
Diameter 0.20 m
Span 0.40 m
Shape Box+2 pan
Manufacturer SPIREG
Bus Type Cubesat 6U
Phase Status In Orbit
Owner/State ORORA/D

Large Constellations

Loading constellations...